Blue Canyon, CA

1:17 AM PDT on May 25, 2017 (GMT -0700)
Blue Canyon-Nyack

Weather History for KBLU - December, 2012

Change the Weather History Date:

Saturday, December 15, 2012

  Actual Average Record
Temperature  
Mean Temperature 24 °F -  
Max Temperature 28 °F 47 °F 69 °F (1980)
Min Temperature 21 °F 34 °F 17 °F (1948)
Degree Days  
Heating Degree Days 40    
Moisture  
Dew Point 23 °F    
Average Humidity 86    
Maximum Humidity 100    
Minimum Humidity 69    
Precipitation  
Precipitation 0.06 in - - ()
Sea Level Pressure  
Sea Level Pressure 30.00 in    
Wind  
Wind Speed 4 mph (SE)    
Max Wind Speed 9 mph    
Max Gust Speed -    
Visibility 6 miles    
Events Fog , Snow    
Averages and records for this station are not official NWS values.
T = Trace of Precipitation, MM = Missing Value Source: NWS Daily Summary

Daily Weather History Graph

Daily Weather History Graph

Search for Another Location

Airport or City:

Trip Planner

Search our weather history database for the weather conditions in past years. The results will help you decide how hot, cold, wet, or windy it might be!

Date:

Astronomy

Dec. 15, 2012 Rise Set
Actual Time 7:15 AM PST 4:40 PM PST
Civil Twilight 6:45 AM PST 5:11 PM PST
Nautical Twilight 6:11 AM PST 5:44 PM PST
Astronomical Twilight 5:39 AM PST 6:17 PM PST
Moon 9:12 AM PST (12/15) 7:50 PM PST (12/15)
Length of Visible Light 10h 25m
Length of Day
9h 25m
Waxing Crescent, 9% of the Moon is Illuminated
Dec 15
Waxing Crescent
Dec 19
First Quarter
Dec 28
Full
Jan 4
Last Quarter
Jan 11
New

Hourly Weather History & Observations

Time (PST) Temp. Windchill Dew Point Humidity Pressure Visibility Wind Dir Wind Speed Gust Speed Precip Events Conditions
12:52 AM 25.0 °F 20.7 °F 19.0 °F 78% 30.01 in 10.0 mi NNW 3.5 mph - N/A   Clear
1:52 AM 24.1 °F 18.2 °F 19.0 °F 81% 30.01 in 10.0 mi NE 4.6 mph - N/A   Clear
2:52 AM 25.0 °F - 18.0 °F 75% 30.00 in 10.0 mi Calm Calm - N/A   Clear
3:52 AM 23.0 °F - 18.0 °F 81% 30.01 in 10.0 mi Calm Calm - N/A   Clear
4:52 AM 24.1 °F 18.2 °F 18.0 °F 77% 29.99 in 10.0 mi ENE 4.6 mph - N/A   Clear
6:52 AM 21.9 °F 17.2 °F 17.1 °F 82% 30.03 in 10.0 mi East 3.5 mph - N/A   Clear
7:52 AM 26.1 °F 21.9 °F 17.1 °F 69% 30.02 in 10.0 mi ESE 3.5 mph - N/A   Clear
8:52 AM 27.0 °F - 19.0 °F 72% 30.04 in 10.0 mi Calm Calm - N/A   Clear
9:52 AM 27.0 °F 23.0 °F 19.0 °F 72% 30.05 in 10.0 mi SE 3.5 mph - N/A   Overcast
10:52 AM 28.0 °F 21.7 °F 21.0 °F 75% 30.06 in 10.0 mi SE 5.8 mph - N/A   Scattered Clouds
11:52 AM 28.0 °F 20.0 °F 21.0 °F 75% 30.05 in 10.0 mi South 8.1 mph - N/A   Overcast
12:52 PM 28.0 °F 19.3 °F 21.0 °F 75% 30.04 in 10.0 mi South 9.2 mph - 0.00 in   Overcast
1:37 PM 26.6 °F 18.2 °F 21.2 °F 80% 29.94 in 5.0 mi South 8.1 mph - 0.00 in Snow Light Snow
1:52 PM 27.0 °F 18.7 °F 21.9 °F 81% 30.04 in 4.0 mi South 8.1 mph - 0.00 in Snow Light Snow
2:08 PM 26.6 °F 18.2 °F 21.2 °F 80% 29.94 in 2.5 mi South 8.1 mph - 0.00 in Snow Light Snow
2:16 PM 26.6 °F 18.2 °F 21.2 °F 80% 29.94 in 1.8 mi South 8.1 mph - 0.00 in Snow Light Snow
2:27 PM 26.6 °F 18.2 °F 23.0 °F 86% 29.95 in 1.2 mi SSE 8.1 mph - 0.00 in Snow Light Snow
2:38 PM 26.6 °F 18.2 °F 23.0 °F 86% 29.95 in 0.8 mi SSE 8.1 mph - 0.01 in Snow Light Snow
2:52 PM 25.0 °F 20.7 °F 23.0 °F 92% 30.05 in 0.8 mi SE 3.5 mph - 0.01 in Snow Light Snow
3:06 PM 24.8 °F 19.1 °F 23.0 °F 93% 29.95 in 0.5 mi SE 4.6 mph - 0.01 in Fog , Snow Light Snow
3:52 PM 25.0 °F 18.1 °F 24.1 °F 96% 30.06 in 0.8 mi SE 5.8 mph - 0.03 in Snow Light Snow
4:24 PM 24.8 °F 17.9 °F 24.8 °F 100% 29.94 in 1.0 mi SE 5.8 mph - 0.01 in Snow Light Snow
4:31 PM 24.8 °F 17.9 °F 24.8 °F 100% 29.95 in 1.5 mi ESE 5.8 mph - 0.01 in Snow Light Snow
4:36 PM 24.8 °F 17.9 °F 24.8 °F 100% 29.95 in 3.0 mi SE 5.8 mph - 0.01 in Snow Light Snow
4:52 PM 25.0 °F 16.3 °F 23.0 °F 92% 30.05 in 3.0 mi ESE 8.1 mph - 0.02 in Snow Light Snow
5:52 PM 26.1 °F 18.4 °F 23.0 °F 88% 30.04 in 6.0 mi SE 6.9 mph - 0.00 in Snow Light Snow
6:52 PM 26.1 °F 19.4 °F 24.1 °F 92% 30.05 in 10.0 mi SE 5.8 mph - 0.00 in   Overcast
7:52 PM 28.0 °F 21.7 °F 23.0 °F 81% 30.03 in 10.0 mi SSE 5.8 mph - N/A   Overcast
8:10 PM 28.4 °F 23.3 °F 23.0 °F 80% 29.95 in 10.0 mi Variable 4.6 mph - N/A   Overcast
8:52 PM 28.0 °F - 25.0 °F 88% 30.03 in 6.0 mi Calm Calm - N/A   Overcast
9:32 PM 28.4 °F - 26.6 °F 93% 29.97 in 8.0 mi Calm Calm - N/A   Overcast
9:52 PM 28.0 °F 24.2 °F 26.1 °F 92% 30.05 in 9.0 mi SSE 3.5 mph - N/A   Overcast
10:32 PM 28.4 °F - 26.6 °F 93% 29.98 in 9.0 mi Calm Calm - N/A   Overcast
10:52 PM 28.0 °F 22.8 °F 26.1 °F 92% 30.06 in 5.0 mi SSE 4.6 mph - N/A   Overcast
11:04 PM 28.4 °F 24.6 °F 26.6 °F 93% 29.99 in 2.5 mi Variable 3.5 mph - N/A   Overcast
11:20 PM 28.4 °F 23.3 °F 26.6 °F 93% 29.99 in 2.5 mi SE 4.6 mph - N/A   Overcast
11:35 PM 26.6 °F 19.1 °F 26.6 °F 100% 29.99 in 2.0 mi SSE 6.9 mph - N/A   Overcast
11:42 PM 28.4 °F 22.2 °F 26.6 °F 93% 29.99 in 1.5 mi SSE 5.8 mph - N/A   Overcast
11:50 PM 28.4 °F 22.2 °F 26.6 °F 93% 29.99 in 0.8 mi SSE 5.8 mph - N/A   Mist
11:52 PM 28.0 °F 22.8 °F 27.0 °F 96% 30.07 in 0.8 mi SSE 4.6 mph - N/A   Overcast
11:59 PM 28.4 °F 23.3 °F 26.6 °F 93% 29.99 in 1.5 mi Variable 4.6 mph - N/A   Overcast